Tracking 28790 objects as of 19-Apr-2024
HD Live streaming from Space Station
objects crossing your sky now

DELTA 1 DEB

Track DELTA 1 DEB now!
10-day predictions


NORAD ID: 12540
Int'l Code: 1976-077DV
Perigee: 1,452.2 km
Apogee: 1,515.1 km
Inclination: 102.4 °
Period: 115.5 minutes
Semi major axis: 7854 km
RCS: 0.0402 m2 (small)
Launch date: July 29, 1976
Source: United States (US)
Launch site: AIR FORCE WESTERN TEST RANGE (AFWTR)

Note: This is SATELLITE DEBRIS
Your satellite tracking list
Your tracking list is empty




NASA's NSSDC Master Catalog

Two Line Element Set (TLE):
1 12540U 76077DV  24109.80121073  .00000074  00000-0  83014-3 0  9997
2 12540 102.4254 193.9123 0040038  12.5199 111.5521 12.47134431  2336
Source of the keplerian elements: AFSPC